Location: Bettgenhausen
(50.6463°N, 7.5681°E)
Time: 16:42:21
(UTC+00:00)

STARLINK-1063 - Pass Details

Date: 27 February 2020
Orbit: 548 x 551 km, 53.0° (Epoch: 30 March)

Event Time Altitude Azimuth Distance (km) Brightness Sun altitude
Rises 18:10:24 0° 222° (SW) 2,706 7.8 -10.9°
Reaches altitude 10° 18:12:42 10° 215° (SW) 1,816 6.8 -11.2°
Maximum altitude 18:16:34 40° 145° (SE) 821 4.2 -11.8°
Enters shadow 18:19:07 19° 85° (E) 1,351 5.0 -12.2°
